Home > Time Zones > World Clock > Weather > Canada > Ajax > Past weeks

Flag for Canada Weather past 2 weeks in Ajax, Ontario, Canada

Now
73 °F

Passing clouds.


Feels Like: 74 °F
Forecast: 64 / 82 °F
Wind: 8 mph from Northwest

Location: Toronto Buttonville

Current Time: Aug 31, 2015 at 10:24:07 AM

Latest Report: Aug 31, 2015 at 10:00 AM


Visibility: 10 mi

Pressure: 30.03 "Hg

Humidity: 78%

Dew point: 66 °F

Location of AjaxLocation

Historic Weather in Ajax — Graph

°F

Ajax temperature yesterday

Maximum temperature yesterday: 79 °F (at 2:00 PM)
Minimum temperature yesterday: 64 °F (at 3:00 AM)
Average temperature yesterday: 71 °F

Past Weeks' High & Low Weather Summary

 TemperatureHumidityPressure
High90 °F (Aug 17, 2:00 PM)100% (Aug 29, 6:00 AM)30.23 "Hg (Aug 29, 6:00 AM)
Low50 °F (Aug 28, 5:00 AM)36% (Aug 22, 3:00 PM)29.71 "Hg (Aug 20, 7:00 AM)
Average69 °F74%30.00 "Hg
* Reported Aug 16 9:00 AM — Aug 31 9:00 AM, Ajax, Weather by CustomWeather, © 2015

Note: Actual official high and low records may vary slightly from our data, if they occured in-between our weather recording intervals... More about our weather records

Advertising

Ajax weather history for previous 24 hours

 ConditionsComfort  
Time TempWeatherWind HumidityBarometerVisibility
9:00 AM
Mon, Aug 31
72 °FSunny.5 mph83%30.02 "Hg9 mi
8:00 AM68 °FSunny.5 mph88%30.01 "Hg8 mi
7:00 AM64 °FFog.2 mph94%30.00 "Hg6 mi
6:00 AM64 °FClear.2 mph94%29.99 "Hg10 mi
5:00 AM64 °FPassing clouds.2 mph94%30.00 "Hg10 mi
4:00 AM63 °FPassing clouds.No wind94%29.99 "Hg10 mi
3:00 AM64 °FClear.No wind88%29.99 "Hg10 mi
2:00 AM64 °FPassing clouds.No wind88%30.00 "Hg10 mi
1:00 AM66 °FClear.No wind94%30.01 "Hg12 mi
12:00 AM68 °FClear.No wind83%30.00 "Hg12 mi
11:00 PM
Sun, Aug 30
70 °FClear.3 mph78%30.01 "Hg12 mi
10:00 PM72 °FPassing clouds.5 mph73%30.02 "Hg12 mi
9:00 PM73 °FOvercast.5 mph69%30.02 "Hg12 mi
8:00 PM75 °FOvercast.7 mph65%30.01 "Hg15 mi
7:00 PM77 °FPartly sunny.8 mph61%30.00 "Hg15 mi
6:00 PM79 °FBroken clouds.5 mph58%30.01 "Hg15 mi
5:00 PM79 °FPartly sunny.6 mph58%30.01 "Hg15 mi
4:00 PM79 °FPartly sunny.2 mph58%30.03 "Hg15 mi
3:00 PM77 °FPartly sunny.5 mph57%30.04 "Hg15 mi
2:00 PM79 °FPartly sunny.3 mph54%30.06 "Hg15 mi
1:00 PM77 °FBroken clouds.6 mph61%30.07 "Hg15 mi
12:00 PM72 °FPartly sunny.No wind73%30.10 "Hg15 mi
11:00 AM70 °FOvercast.5 mph73%30.10 "Hg15 mi
10:00 AM68 °FOvercast.3 mph78%30.10 "Hg15 mi
Weather by CustomWeather, © 2015

See weather overviewHow to use our weather pages